Location: New Town
(33.2710°N, 90.7534°W)
Time: 12:06:20
(UTC+00:00)

Explorer 11/Cluster Stage 4 - Pass Details

Date: 21 May 2021
Orbit: 467 x 1257 km, 28.8° (Epoch: 14 June)

Event Time Altitude Azimuth Distance (km) Brightness Sun altitude
Rises 20:41:18 0° 206° (SSW) 3,020 9.9 52.0°
Reaches altitude 10° 20:44:26 10° 184° (S) 2,263 9.2 51.3°
Maximum altitude 20:47:37 16° 147° (SSE) 2,044 8.7 50.7°
Drops below altitude 10° 20:51:10 10° 112° (ESE) 2,598 9.0 49.9°
Sets 20:55:10 0° 93° (E) 3,729 9.7 49.1°
